Location: Newark
(25.6108°S, 54.5803°W)
Time: 21:34:19
(UTC+00:00)

Courier 1B - Pass Details

Date: 27 October 2020
Orbit: 962 x 1209 km, 28.3° (Epoch: 24 November)

Event Time Altitude Azimuth Distance (km) Brightness Sun altitude
Rises 00:04:27 0° 325° (NW) 3,900 10.7 -28.4°
Reaches altitude 10° 00:07:39 10° 338° (NNW) 2,987 9.9 -29.0°
Enters shadow 00:08:09 12° 340° (NNW) 2,864 9.8 -29.1°
Maximum altitude 00:13:35 26° 31° (NNE) 2,102 - -30.1°
Drops below altitude 10° 00:19:45 10° 84° (E) 3,119 - -31.2°
Sets 00:23:10 0° 95° (E) 4,106 - -31.9°
